Home > Weather > Foochow > Past weeks

Flag for China Weather for the Past 2 Weeks in Foochow, Fujian, China

Now
70 °F

Fog.


Feels Like: 70 °F
Forecast: 69 / 86 °F
Wind: 1 mph from North

Location: Fuzhou Airport

Current Time: May 5, 2016 at 2:15:56 AM

Latest Report: May 5, 2016 at 1:00 AM


Visibility: 2 mi

Pressure: 29.89 "Hg

Humidity: 94%

Dew Point: 68 °F

Location of FoochowLocation

Historic Weather in Foochow — Graph

°F

Foochow Temperature Yesterday

Maximum temperature yesterday: 81 °F (at 11:00 AM)
Minimum temperature yesterday: 70 °F (at 4:00 AM)
Average temperature yesterday: 74 °F

High & Low Weather Summary for the Past Weeks

 TemperatureHumidityPressure
High86 °F (May 3, 12:00 PM)100% (Apr 23, 8:00 AM)30.07 "Hg (Apr 23, 8:00 AM)
Low61 °F (Apr 24, 10:00 PM)44% (Apr 29, 1:00 PM)29.68 "Hg (Apr 27, 2:00 PM)
Average70 °F84%29.88 "Hg
* Reported Apr 20 1:00 AM — May 5 1:00 AM, Foochow, Weather by CustomWeather, © 2016

Note: Actual official high and low records may vary slightly from our data, if they occured in-between our weather recording intervals... More about our weather records

Advertising

Foochow Weather History for the Previous 24 Hours

Scroll right to see more
 ConditionsComfort  
Time TempWeatherWind HumidityBarometerVisibility
1:00 AM
Thu, May 5
70 °FFog.1 mph94%29.89 "Hg2 mi
12:00 AM72 °FFog.3 mph88%29.89 "Hg3 mi
11:00 PM
Wed, May 4
72 °FFog.1 mph88%29.92 "Hg3 mi
10:00 PM72 °FPassing clouds.1 mph88%29.92 "Hg5 mi
9:00 PM72 °FPassing clouds.1 mph88%29.92 "Hg5 mi
8:00 PM72 °FPassing clouds.6 mph88%29.89 "Hg6 mi
7:00 PM72 °FPassing clouds.6 mph88%29.89 "Hg6 mi
6:00 PM73 °FScattered clouds.6 mph83%29.89 "Hg6 mi
5:00 PM75 °FPassing clouds.6 mph78%29.86 "Hg6 mi
4:00 PM77 °FClear.8 mph74%29.86 "Hg6 mi
3:00 PM77 °FSunny.8 mph74%29.89 "Hg10 mi
2:00 PM79 °FPassing clouds.8 mph70%29.89 "HgN/A
1:00 PM81 °FPassing clouds.10 mph70%29.92 "HgN/A
12:00 PM81 °FPassing clouds.8 mph70%29.92 "HgN/A
11:00 AM81 °FPassing clouds.8 mph66%29.92 "HgN/A
10:00 AM79 °FScattered clouds.8 mph70%29.95 "HgN/A
9:00 AM77 °FClear.6 mph74%29.95 "Hg6 mi
8:00 AM75 °FPassing clouds.6 mph78%29.95 "Hg5 mi
7:00 AM72 °FPassing clouds.3 mph83%29.95 "Hg5 mi
6:00 AM72 °FPartly sunny.3 mph83%29.92 "Hg4 mi
5:00 AM70 °FPassing clouds.3 mph88%29.92 "Hg4 mi
4:00 AM70 °FPassing clouds.6 mph88%29.92 "Hg4 mi
3:00 AM72 °FPassing clouds.6 mph88%29.92 "Hg4 mi
2:00 AM72 °FFog.6 mph88%29.92 "Hg3 mi
Weather by CustomWeather, © 2016

See weather overviewHow to use our weather pages